• In Czech Republic
  • List of Countries
  • For 7 days
  • Water Temperature
  • Satellite Maps
  • Weather Map
  • Weather Widgets
  • user-avatar
    Login

    Hourly Weather Priazovskoe

    Today, 21 January, Sunday

    Time Temperature Precipitation Wind Pressure Humidity
    00:00 +2°C° 0.1 mm 5 mps 756 mmHg 83%
    01:00 +2°C° 0.1 mm 5 mps 756 mmHg 84%
    02:00 +3°C° 0 mm 4 mps 755 mmHg 85%
    03:00 +3°C° 0.7 mm 4 mps 754 mmHg 87%
    04:00 +2°C° 0.7 mm 5 mps 754 mmHg 89%
    05:00 +2°C° 0.7 mm 5 mps 754 mmHg 91%
    06:00 +1°C° 1.4 mm 6 mps 754 mmHg 90%
    07:00 +1°C° 1.4 mm 6 mps 754 mmHg 90%
    08:00 -1°C° 1.4 mm 7 mps 754 mmHg 89%
    09:00 -1°C° 0 mm 7 mps 755 mmHg 85%
    10:00 -1°C° 0 mm 7 mps 756 mmHg 81%
    11:00 -1°C° 0 mm 7 mps 757 mmHg 77%
    12:00 0°C° 0 mm 7 mps 758 mmHg 74%
    13:00 +1°C° 0 mm 6 mps 758 mmHg 70%
    14:00 +1°C° 0 mm 5 mps 759 mmHg 66%
    15:00 +2°C° 0 mm 3 mps 760 mmHg 69%
    16:00 +2°C° 0 mm 2 mps 760 mmHg 71%
    17:00 +2°C° 0 mm 1 mps 761 mmHg 73%
    18:00 +1°C° 0 mm 2 mps 761 mmHg 74%
    19:00 +1°C° 0 mm 2 mps 761 mmHg 75%
    20:00 0°C° 0 mm 3 mps 761 mmHg 75%
    21:00 -1°C° 0 mm 4 mps 761 mmHg 74%
    22:00 -2°C° 0 mm 5 mps 761 mmHg 73%
    23:00 -3°C° 0 mm 6 mps 760 mmHg 72%

    Tomorrow, 22 January, Monday

    Time Temperature Precipitation Wind Pressure Humidity
    00:00 -3°C° 0.1 mm 7 mps 760 mmHg 71%
    01:00 -3°C° 0.1 mm 7 mps 760 mmHg 71%
    02:00 -3°C° 0.1 mm 7 mps 759 mmHg 71%
    03:00 -4°C° 0.6 mm 8 mps 759 mmHg 76%
    04:00 -4°C° 0.6 mm 9 mps 758 mmHg 82%
    05:00 -4°C° 0.6 mm 10 mps 758 mmHg 88%
    06:00 -4°C° 0.6 mm 10 mps 758 mmHg 89%
    07:00 -4°C° 0.6 mm 11 mps 757 mmHg 89%
    08:00 -4°C° 0.6 mm 11 mps 757 mmHg 90%
    09:00 -4°C° 0.4 mm 11 mps 756 mmHg 89%
    10:00 -4°C° 0.4 mm 10 mps 756 mmHg 87%
    11:00 -4°C° 0.4 mm 10 mps 755 mmHg 86%
    12:00 -3°C° 0.1 mm 10 mps 755 mmHg 86%
    13:00 -3°C° 0.1 mm 9 mps 754 mmHg 86%
    14:00 -3°C° 0.1 mm 9 mps 754 mmHg 86%
    15:00 -3°C° 0.2 mm 9 mps 754 mmHg 87%
    16:00 -3°C° 0.2 mm 9 mps 754 mmHg 88%
    17:00 -3°C° 0.2 mm 9 mps 754 mmHg 90%
    18:00 -3°C° 0.3 mm 9 mps 754 mmHg 90%
    19:00 -2°C° 0.3 mm 8 mps 754 mmHg 91%
    20:00 -2°C° 0.3 mm 8 mps 754 mmHg 91%
    21:00 -4°C° 0.5 mm 8 mps 754 mmHg 92%
    22:00 -4°C° 0.5 mm 8 mps 754 mmHg 92%
    23:00 -3°C° 0.5 mm 7 mps 754 mmHg 92%

    Day after tomorrow, 23 January, Tuesday

    Time Temperature Precipitation Wind Pressure Humidity
    00:00 -3°C° 0.4 mm 7 mps 754 mmHg 92%
    01:00 -3°C° 0.4 mm 7 mps 754 mmHg 93%
    02:00 -3°C° 0.4 mm 7 mps 754 mmHg 93%
    03:00 -5°C° 0.7 mm 8 mps 754 mmHg 93%
    04:00 -5°C° 0.7 mm 8 mps 754 mmHg 92%
    05:00 -5°C° 0.7 mm 8 mps 754 mmHg 92%
    06:00 -5°C° 0.6 mm 8 mps 755 mmHg 92%
    07:00 -5°C° 0.6 mm 8 mps 755 mmHg 93%
    08:00 -6°C° 0.6 mm 8 mps 756 mmHg 93%
    09:00 -6°C° 0.3 mm 9 mps 756 mmHg 92%
    10:00 -6°C° 0.3 mm 9 mps 756 mmHg 92%
    11:00 -7°C° 0.3 mm 10 mps 757 mmHg 91%
    12:00 -7°C° 0.4 mm 10 mps 757 mmHg 91%
    13:00 -7°C° 0.4 mm 10 mps 757 mmHg 91%
    14:00 -7°C° 0.4 mm 10 mps 757 mmHg 91%
    15:00 -7°C° 0.4 mm 10 mps 758 mmHg 90%
    16:00 -8°C° 0.4 mm 10 mps 759 mmHg 89%
    17:00 -8°C° 0.4 mm 11 mps 759 mmHg 89%
    18:00 -8°C° 0.4 mm 11 mps 760 mmHg 88%
    19:00 -8°C° 0.4 mm 10 mps 760 mmHg 88%
    20:00 -9°C° 0.4 mm 10 mps 761 mmHg 88%
    21:00 -9°C° 0.2 mm 10 mps 761 mmHg 88%
    22:00 -9°C° 0.2 mm 10 mps 762 mmHg 87%
    23:00 -9°C° 0.2 mm 10 mps 762 mmHg 87%

    24 January, Wednesday

    Time Temperature Precipitation Wind Pressure Humidity
    00:00 -9°C° 0.1 mm 10 mps 762 mmHg 87%
    01:00 -9°C° 0.1 mm 10 mps 763 mmHg 86%
    02:00 -9°C° 0.1 mm 10 mps 763 mmHg 86%
    03:00 -9°C° 0.1 mm 10 mps 764 mmHg 86%
    04:00 -9°C° 0.1 mm 10 mps 764 mmHg 86%
    05:00 -9°C° 0.1 mm 10 mps 765 mmHg 86%
    06:00 -9°C° 0.1 mm 10 mps 765 mmHg 86%
    07:00 -9°C° 0.1 mm 10 mps 766 mmHg 86%
    08:00 -9°C° 0.1 mm 10 mps 767 mmHg 86%
    09:00 -9°C° 0.1 mm 10 mps 767 mmHg 87%
    10:00 -9°C° 0.1 mm 10 mps 767 mmHg 87%
    11:00 -8°C° 0.1 mm 9 mps 768 mmHg 87%
    12:00 -8°C° 0.1 mm 9 mps 768 mmHg 87%
    13:00 -8°C° 0.1 mm 9 mps 768 mmHg 87%
    14:00 -8°C° 0.1 mm 9 mps 768 mmHg 87%
    15:00 -8°C° 0.2 mm 8 mps 769 mmHg 88%
    16:00 -8°C° 0.2 mm 8 mps 769 mmHg 88%
    17:00 -10°C° 0.2 mm 8 mps 769 mmHg 89%
    18:00 -10°C° 0.1 mm 8 mps 770 mmHg 89%
    19:00 -9°C° 0.1 mm 7 mps 770 mmHg 90%
    20:00 -9°C° 0.1 mm 7 mps 770 mmHg 90%
    21:00 -9°C° 0.1 mm 7 mps 770 mmHg 90%
    22:00 -9°C° 0.1 mm 6 mps 770 mmHg 90%
    23:00 -9°C° 0.1 mm 6 mps 770 mmHg 91%

    25 January, Thursday

    Time Temperature Precipitation Wind Pressure Humidity
    00:00 -9°C° 0.1 mm 6 mps 770 mmHg 91%
    01:00 -9°C° 0.1 mm 6 mps 770 mmHg 91%
    02:00 -8°C° 0.1 mm 5 mps 770 mmHg 91%
    03:00 -8°C° 0.1 mm 5 mps 770 mmHg 91%
    04:00 -8°C° 0.1 mm 5 mps 770 mmHg 92%
    05:00 -8°C° 0.1 mm 4 mps 770 mmHg 92%
    06:00 -7°C° 0 mm 4 mps 770 mmHg 92%
    07:00 -7°C° 0 mm 4 mps 771 mmHg 93%
    08:00 -6°C° 0 mm 3 mps 771 mmHg 93%
    09:00 -5°C° 0 mm 4 mps 771 mmHg 91%
    10:00 -4°C° 0 mm 4 mps 771 mmHg 89%
    11:00 -3°C° 0 mm 4 mps 771 mmHg 88%
    12:00 -3°C° 0 mm 4 mps 771 mmHg 87%
    13:00 -3°C° 0 mm 4 mps 771 mmHg 86%
    14:00 -2°C° 0 mm 4 mps 771 mmHg 85%
    15:00 -2°C° 0 mm 4 mps 771 mmHg 87%
    16:00 -4°C° 0 mm 5 mps 771 mmHg 89%
    17:00 -4°C° 0 mm 5 mps 771 mmHg 91%
    18:00 -4°C° 0 mm 6 mps 771 mmHg 91%
    19:00 -4°C° 0 mm 7 mps 771 mmHg 92%
    20:00 -3°C° 0 mm 7 mps 771 mmHg 92%
    21:00 -4°C° 0 mm 7 mps 771 mmHg 92%
    22:00 -4°C° 0 mm 7 mps 771 mmHg 92%
    23:00 -6°C° 0 mm 7 mps 771 mmHg 92%

    26 January, Friday

    Time Temperature Precipitation Wind Pressure Humidity
    00:00 -6°C° 0 mm 7 mps 771 mmHg 92%
    01:00 -7°C° 0 mm 7 mps 771 mmHg 92%
    02:00 -8°C° 0 mm 7 mps 771 mmHg 93%
    03:00 -8°C° 0 mm 7 mps 771 mmHg 93%
    04:00 -9°C° 0 mm 7 mps 771 mmHg 93%
    05:00 -9°C° 0 mm 7 mps 771 mmHg 93%
    06:00 -9°C° 0 mm 7 mps 771 mmHg 93%
    07:00 -9°C° 0 mm 7 mps 771 mmHg 93%
    08:00 -11°C° 0 mm 7 mps 771 mmHg 93%
    09:00 -9°C° 0 mm 7 mps 771 mmHg 92%
    10:00 -8°C° 0 mm 7 mps 771 mmHg 91%
    11:00 -8°C° 0 mm 7 mps 771 mmHg 91%
    12:00 -7°C° 0 mm 7 mps 771 mmHg 90%
    13:00 -7°C° 0 mm 7 mps 771 mmHg 90%
    14:00 -7°C° 0 mm 7 mps 771 mmHg 89%
    15:00 -7°C° 0 mm 7 mps 771 mmHg 90%
    16:00 -8°C° 0 mm 7 mps 771 mmHg 90%
    17:00 -9°C° 0 mm 7 mps 771 mmHg 91%
    18:00 -9°C° 0 mm 6 mps 771 mmHg 91%
    19:00 -10°C° 0 mm 6 mps 771 mmHg 91%
    20:00 -11°C° 0 mm 6 mps 772 mmHg 92%
    21:00 -12°C° 0 mm 6 mps 772 mmHg 92%
    22:00 -14°C° 0 mm 6 mps 772 mmHg 92%
    23:00 -15°C° 0 mm 6 mps 772 mmHg 92%
    Show more